MUOS-1                  
1 38093U 12009A   19265.82953910  .00000059  00000-0  00000+0 0  9998
2 38093   2.5989 358.3455 0059174 180.0613 304.5622  1.00273124 27793
ATLAS 5 CENTAUR R/B     
1 38094U 12009B   19264.60813184 -.00000006  00000-0  00000+0 0  9995
2 38094  17.6459 123.3378 6254788 117.0817 309.4406  2.11810184 58612